Tracking 19149 objects as of 22-Apr-2018
HD Live streaming from Space Station
objects crossing your sky now

MOLNIYA 1-36

Track MOLNIYA 1-36 now!
MOLNIYA 1-36 is classified as:


NORAD ID: 9880
Int'l Code: 1977-021A
Perigee: 767.3 km
Apogee: 39,624.2 km
Inclination: 61.6 °
Period: 718.2 minutes
Semi major axis: 26566 km
RCS: 17.6752 m2 (large)
Launch date: March 24, 1977
Source: Commonwealth of Independent States (former USSR) (CIS)
Launch site: PLESETSK MISSILE AND SPACE COMPLEX (PKMTR)
aabbcc
Your satellite tracking list
Your tracking list is empty




NASA's NSSDC Master Catalog

Two Line Element Set (TLE):
1  9880U 77021A   18110.72950567 +.00001732 +00000-0 +56939-2 0  9991
2  9880 061.6282 150.2679 7313067 272.1713 013.7866 02.00490966198939
Source of the keplerian elements: AFSPC